QPF
0.00 0.00 0.00 0.00 0.00 0.00 0.00 0.00 0.00 0.00 0.00 0.00 0.00 0.03 0.01 0.05 0.01 0.00 0.00 0.00 0.00 0.00 0.00 0.00 0.00 0.00 0.00 0.00 0.00 0.01 0.05 0.03 0.01 0.01 0.04 0.03 0.00 0.00 0.00 0.00 0.00 0.00 0.00 0.00
0.00 0.00 0.00 0.00 0.00 0.00 0.00 0.01 0.00 0.00 0.00 0.00 0.00 0.06 0.06 0.09 0.00 0.00 0.00 0.00 0.00 0.00 0.00 0.00 0.00 0.00 0.00 0.01 0.03 0.08 0.11 0.06 0.01 0.06 0.12 0.02 0.00 0.00 0.00 0.00 0.00 0.00 0.00 0.00
0.00 0.00 0.00 0.00 0.00 0.00 0.00 0.00 0.00 0.00 0.00 0.00 0.00 0.08 0.17 0.05 0.05 0.00 0.00 0.00 0.00 0.00 0.00 0.00 0.00 0.05 0.02 0.04 0.09 0.14 0.12 0.04 0.05 0.16 0.11 0.01 0.01 0.00 0.00 0.00 0.00 0.00 0.00 0.00
0.00 0.00 0.00 0.00 0.00 0.00 0.00 0.00 0.00 0.00 0.00 0.00 0.00 0.07 0.06 0.05 0.02 0.00 0.00 0.00 0.00 0.00 0.00 0.00 0.00 0.00 0.00 0.01 0.05 0.08 0.07 0.05 0.06 0.10 0.01 0.01 0.00 0.00 0.00 0.00 0.00 0.00 0.00 0.00
0.00 0.00 0.00 0.00 0.00 0.00 0.00 0.00 0.00 0.00 0.00 0.00 0.00 0.02 0.01 0.00 0.01 0.00 0.00 0.00 0.00 0.00 0.00 0.00 0.00 0.00 0.00 0.00 0.00 0.00 0.02 0.00 0.00 0.00 0.00 0.02 0.01 0.01 0.00 0.00 0.00 0.00 0.00 0.00
0.00 0.00 0.00 0.00 0.00 0.00 0.00 0.00 0.00 0.00 0.00 0.00 0.01 0.01 0.01 0.01 0.01 0.00 0.00 0.00 0.00 0.00 0.00 0.00 0.00 0.00 0.00 0.00 0.00 0.00 0.00 0.00 0.00 0.01 0.02 0.03 0.01 0.03 0.04 0.01 0.00 0.00 0.00 0.00
0.00 0.00 0.00 0.00 0.00 0.00 0.01 0.00 0.00 0.00 0.00 0.00 0.00 0.02 0.02 0.01 0.00 0.00 0.00 0.00 0.00 0.00 0.00 0.00 0.00 0.00 0.00 0.00 0.00 0.00 0.01 0.03 0.01 0.05 0.07 0.08 0.11 0.10 0.09 0.04 0.02 0.00 0.00 0.00
0.00 0.00 0.00 0.00 0.00 0.00 0.00 0.00 0.00 0.00 0.00 0.00 0.00 0.04 0.02 0.01 0.01 0.00 0.00 0.00 0.00 0.00 0.00 0.00 0.00 0.00 0.00 0.00 0.00 0.00 0.00 0.00 0.01 0.04 0.04 0.06 0.06 0.05 0.03 0.04 0.03 0.01 0.01 0.00
0.00 0.00 0.00 0.00 0.01 0.00 0.00 0.00 0.00 0.00 0.00 0.00 0.00 0.01 0.01 0.00 0.00 0.00 0.00 0.00 0.00 0.00 0.00 0.00 0.00 0.00 0.00 0.00 0.00 0.00 0.00 0.00 0.00 0.00 0.00 0.00 0.01 0.04 0.06 0.07 0.06 0.02 0.02 0.01
0.00 0.00 0.00 0.00 0.00 0.00 0.00 0.00 0.00 0.00 0.00 0.00 0.00 0.06 0.03 0.00 0.00 0.00 0.00 0.00 0.00 0.00 0.00 0.00 0.00 0.00 0.00 0.00 0.00 0.00 0.00 0.00 0.00 0.00 0.00 0.00 0.02 0.02 0.02 0.03 0.01 0.00 0.01 0.01
0.00 0.00 0.00 0.00 0.00 0.00 0.00 0.00 0.00 0.00 0.00 0.00 0.01 0.03 0.00 0.00 0.00 0.00 0.00 0.00 0.00 0.00 0.00 0.00 0.00 0.00 0.00 0.00 0.00 0.00 0.00 0.00 0.00 0.00 0.00 0.00 0.00 0.01 0.03 0.07 0.07 0.05 0.01 0.01
0.00 0.00 0.00 0.00 0.00 0.00 0.00 0.00 0.00 0.00 0.00 0.00 0.00 0.01 0.00 0.00 0.00 0.00 0.00 0.00 0.00 0.00 0.00 0.00 0.00 0.00 0.00 0.00 0.00 0.00 0.00 0.00 0.00 0.00 0.00 0.00 0.00 0.01 0.02 0.05 0.10 0.11 0.04 0.07
0.00 0.00 0.00 0.00 0.00 0.00 0.00 0.00 0.00 0.00 0.00 0.00 0.00 0.02 0.00 0.00 0.00 0.00 0.00 0.00 0.00 0.00 0.00 0.00 0.00 0.00 0.00 0.00 0.00 0.00 0.00 0.00 0.00 0.00 0.00 0.00 0.00 0.00 0.01 0.01 0.03 0.05 0.06 0.03
0.00 0.00 0.00 0.00 0.00 0.00 0.00 0.00 0.00 0.00 0.00 0.00 0.00 0.00 0.00 0.00 0.00 0.00 0.00 0.00 0.00 0.00 0.00 0.00 0.00 0.00 0.00 0.00 0.00 0.00 0.00 0.00 0.00 0.00 0.00 0.00 0.00 0.01 0.00 0.01 0.03 0.11 0.06 0.00
0.00 0.00 0.00 0.00 0.00 0.00 0.00 0.00 0.00 0.00 0.00 0.00 0.00 0.00 0.00 0.00 0.00 0.00 0.00 0.00 0.00 0.00 0.00 0.00 0.00 0.00 0.00 0.00 0.00 0.00 0.00 0.00 0.00 0.00 0.00 0.00 0.00 0.00 0.00 0.01 0.03 0.04 0.01 0.00
0.00 0.00 0.00 0.00 0.00 0.00 0.00 0.00 0.00 0.00 0.00 0.00 0.00 0.00 0.00 0.00 0.00 0.00 0.00 0.00 0.00 0.00 0.00 0.00 0.00 0.00 0.00 0.00 0.00 0.00 0.00 0.00 0.00 0.00 0.01 0.00 0.00 0.01 0.02 0.02 0.03 0.01 0.00 0.01
0.00 0.00 0.00 0.00 0.00 0.00 0.00 0.00 0.00 0.00 0.00 0.00 0.00 0.00 0.00 0.00 0.00 0.00 0.00 0.00 0.00 0.00 0.00 0.00 0.00 0.00 0.00 0.00 0.00 0.00 0.00 0.00 0.00 0.00 0.01 0.00 0.00 0.01 0.02 0.04 0.01 0.02 0.02 0.05
0.00 0.00 0.00 0.00 0.00 0.01 0.00 0.00 0.00 0.00 0.00 0.00 0.00 0.00 0.00 0.00 0.00 0.00 0.00 0.00 0.00 0.00 0.00 0.00 0.00 0.00 0.00 0.00 0.00 0.00 0.00 0.00 0.00 0.00 0.00 0.00 0.00 0.00 0.02 0.01 0.00 0.01 0.01 0.04
0.00 0.00 0.00 0.00 0.01 0.00 0.01 0.03 0.02 0.01 0.00 0.00 0.00 0.00 0.00 0.00 0.00 0.00 0.00 0.00 0.00 0.00 0.00 0.00 0.00 0.00 0.00 0.00 0.00 0.00 0.00 0.00 0.00 0.00 0.00 0.00 0.00 0.00 0.01 0.01 0.01 0.00 0.00 0.02
0.00 0.02 0.01 0.00 0.03 0.04 0.06 0.01 0.00 0.00 0.00 0.00 0.00 0.00 0.00 0.00 0.00 0.00 0.00 0.00 0.00 0.00 0.00 0.00 0.00 0.00 0.00 0.00 0.00 0.00 0.00 0.00 0.00 0.00 0.00 0.00 0.00 0.00 0.01 0.01 0.02 0.00 0.00 0.01
0.00 0.02 0.05 0.04 0.03 0.03 0.01 0.00 0.00 0.00 0.01 0.00 0.00 0.00 0.00 0.00 0.00 0.00 0.00 0.00 0.00 0.00 0.00 0.00 0.00 0.00 0.00 0.00 0.00 0.00 0.00 0.00 0.00 0.00 0.00 0.00 0.00 0.00 0.01 0.01 0.01 0.03 0.04 0.05
0.01 0.02 0.02 0.02 0.03 0.02 0.00 0.00 0.00 0.00 0.00 0.00 0.00 0.00 0.00 0.00 0.00 0.00 0.00 0.00 0.00 0.00 0.00 0.00 0.00 0.00 0.00 0.00 0.00 0.00 0.00 0.00 0.00 0.00 0.00 0.00 0.00 0.00 0.00 0.00 0.00 0.02 0.05 0.01
0.00 0.02 0.02 0.00 0.01 0.00 0.00 0.00 0.00 0.00 0.00 0.00 0.00 0.00 0.00 0.00 0.00 0.00 0.00 0.00 0.00 0.00 0.00 0.00 0.00 0.00 0.00 0.00 0.00 0.00 0.00 0.00 0.00 0.00 0.00 0.00 0.00 0.00 0.00 0.00 0.01 0.01 0.02 0.00
0.00 0.00 0.00 0.01 0.00 0.00 0.00 0.00 0.00 0.00 0.00 0.00 0.00 0.00 0.00 0.00 0.00 0.00 0.00 0.00 0.00 0.00 0.00 0.00 0.00 0.00 0.00 0.00 0.00 0.00 0.00 0.00 0.00 0.00 0.00 0.00 0.00 0.00 0.00 0.00 0.00 0.00 0.02 0.00
0.00 0.01 0.00 0.00 0.00 0.00 0.00 0.00 0.00 0.00 0.00 0.00 0.00 0.00 0.00 0.00 0.00 0.00 0.00 0.00 0.00 0.00 0.00 0.00 0.00 0.00 0.00 0.00 0.00 0.00 0.00 0.00 0.00 0.00 0.00 0.00 0.00 0.00 0.00 0.00 0.01 0.01 0.01 0.00
0.00 0.00 0.00 0.00 0.00 0.00 0.00 0.00 0.00 0.00 0.00 0.00 0.00 0.00 0.00 0.00 0.00 0.00 0.00 0.00 0.00 0.00 0.00 0.00 0.00 0.00 0.00 0.00 0.00 0.00 0.00 0.00 0.01 0.01 0.00 0.00 0.00 0.00 0.00 0.00 0.02 0.02 0.03 0.02
MSLP
1006.36 1007.70 1007.95 1007.91 1008.14 1008.10 1009.71 1011.29 1012.37 1012.08 1010.89 1011.09 1012.08 1014.13 1015.59 1016.00 1015.98 1016.34 1017.30 1017.72 1018.10 1018.67 1018.44 1018.98 1019.08 1019.58 1019.85 1020.07 1020.18 1020.21 1020.26 1020.46 1021.03 1021.07 1021.21 1021.53 1020.99 1020.01 1020.03 1019.85 1019.70 1019.80 1019.86 1019.77
1006.52 1006.69 1006.58 1006.56 1007.01 1007.74 1008.37 1008.81 1009.17 1009.76 1009.82 1010.65 1012.34 1014.88 1016.24 1016.47 1016.43 1016.53 1016.48 1017.06 1017.33 1017.71 1017.92 1018.52 1018.85 1019.02 1019.32 1019.49 1019.30 1020.17 1020.30 1020.44 1020.29 1020.70 1020.87 1021.22 1020.16 1019.71 1019.62 1019.79 1019.65 1019.62 1019.46 1019.61
1006.47 1005.50 1005.39 1005.92 1006.21 1006.67 1007.20 1007.70 1008.13 1008.77 1008.95 1009.88 1012.24 1015.91 1017.72 1017.16 1016.40 1016.08 1015.66 1015.89 1016.70 1016.93 1017.26 1017.91 1018.33 1018.75 1018.56 1018.74 1019.17 1019.67 1020.07 1019.90 1020.24 1020.47 1020.42 1019.80 1019.85 1019.63 1019.66 1019.36 1019.49 1019.45 1019.35 1019.16
1006.20 1004.97 1004.73 1005.07 1005.82 1006.50 1006.89 1007.10 1007.59 1008.07 1008.90 1009.96 1010.79 1015.30 1016.46 1017.85 1017.01 1016.00 1015.87 1015.82 1016.60 1016.90 1017.11 1017.94 1018.21 1018.49 1018.44 1018.47 1018.77 1019.24 1019.39 1019.67 1020.15 1020.01 1019.82 1019.85 1020.43 1020.07 1019.54 1019.53 1019.37 1019.46 1019.19 1018.96
1005.79 1005.30 1004.93 1005.05 1005.96 1006.43 1007.16 1007.88 1008.36 1008.31 1008.86 1009.79 1012.09 1014.33 1017.22 1017.69 1017.43 1016.66 1016.31 1015.94 1016.19 1017.03 1017.60 1017.97 1018.04 1018.01 1018.23 1018.46 1018.54 1018.89 1019.27 1019.79 1019.60 1019.48 1019.85 1020.18 1020.18 1019.75 1019.28 1019.28 1019.14 1018.94 1018.65 1018.44
1005.42 1004.75 1005.03 1005.32 1005.71 1006.15 1006.46 1008.11 1009.50 1009.16 1009.19 1010.51 1011.96 1013.83 1017.56 1017.46 1017.39 1016.62 1016.54 1016.24 1016.67 1017.26 1017.37 1017.70 1017.62 1017.88 1018.21 1018.26 1018.71 1018.84 1019.28 1019.42 1019.39 1019.71 1019.52 1019.74 1019.89 1019.61 1019.90 1019.60 1019.41 1018.92 1018.66 1018.52
1005.56 1005.25 1004.74 1004.90 1005.67 1006.11 1006.87 1008.81 1009.80 1010.16 1010.85 1012.14 1013.10 1014.65 1016.53 1016.66 1016.75 1016.64 1016.76 1016.76 1016.93 1017.16 1017.73 1018.05 1017.99 1018.03 1018.36 1018.43 1018.45 1018.85 1019.41 1019.23 1019.46 1019.67 1019.63 1019.64 1019.51 1019.39 1019.88 1019.72 1019.33 1018.95 1018.83 1018.61
1006.21 1005.71 1005.13 1005.09 1005.85 1006.84 1007.28 1008.37 1009.86 1010.97 1011.92 1012.94 1013.22 1015.46 1016.69 1016.69 1016.35 1016.20 1015.99 1016.65 1017.03 1017.31 1017.54 1017.67 1017.61 1017.70 1017.84 1017.94 1018.28 1018.54 1018.77 1018.78 1018.95 1019.09 1019.28 1019.38 1019.17 1019.00 1018.70 1018.97 1018.85 1018.60 1018.50 1018.12
1006.69 1006.34 1005.70 1005.57 1005.53 1006.24 1007.02 1008.20 1009.03 1010.44 1011.26 1012.61 1014.78 1016.44 1016.74 1016.39 1016.30 1015.94 1016.58 1016.75 1017.12 1017.23 1017.26 1017.37 1017.43 1017.80 1017.97 1018.05 1018.19 1018.22 1018.39 1018.49 1018.51 1018.80 1018.92 1019.01 1018.88 1018.81 1018.63 1018.48 1018.43 1018.21 1017.97 1017.58
1007.48 1007.13 1006.27 1005.94 1005.79 1006.17 1006.88 1007.75 1008.96 1010.65 1012.46 1013.74 1014.48 1015.67 1016.13 1016.32 1016.21 1016.06 1016.48 1016.89 1017.10 1017.18 1017.43 1017.69 1017.66 1017.67 1017.77 1017.69 1017.86 1018.18 1018.24 1018.36 1018.65 1018.70 1018.64 1018.66 1018.54 1018.41 1018.15 1018.03 1017.91 1017.83 1017.45 1017.14
1008.21 1008.15 1007.53 1006.78 1006.77 1007.00 1007.25 1008.18 1009.34 1010.97 1012.34 1013.87 1014.93 1015.66 1015.31 1015.86 1016.35 1016.64 1016.82 1016.91 1016.99 1017.31 1017.35 1017.51 1017.60 1017.70 1017.76 1017.76 1017.95 1018.13 1018.19 1018.39 1018.65 1018.54 1018.48 1018.40 1018.24 1018.02 1018.04 1017.78 1017.29 1017.03 1016.86 1016.80
1009.24 1009.09 1008.75 1008.21 1007.53 1007.26 1007.64 1008.49 1009.73 1011.61 1012.85 1013.77 1014.36 1016.03 1015.60 1016.00 1016.43 1016.83 1016.81 1016.92 1016.87 1017.01 1017.09 1017.25 1017.39 1017.56 1017.62 1017.53 1017.61 1017.81 1017.98 1018.12 1018.20 1018.12 1018.19 1018.12 1017.97 1017.55 1017.53 1017.19 1016.83 1016.50 1016.35 1016.28
1009.94 1009.86 1009.78 1008.99 1008.45 1007.97 1008.07 1008.63 1009.41 1010.99 1012.18 1013.38 1014.21 1015.69 1015.70 1015.86 1016.26 1016.43 1016.65 1016.83 1016.90 1016.80 1017.01 1017.17 1017.27 1017.33 1017.32 1017.37 1017.50 1017.59 1017.77 1017.79 1017.76 1017.73 1017.85 1017.96 1017.61 1017.31 1017.02 1016.57 1016.19 1015.78 1015.56 1015.75
1010.25 1010.40 1010.39 1009.97 1009.17 1008.59 1008.64 1008.63 1009.26 1010.53 1012.03 1012.92 1013.73 1014.98 1015.76 1016.08 1016.25 1016.33 1016.59 1016.59 1016.63 1016.74 1017.11 1017.37 1017.42 1017.30 1017.48 1017.63 1017.60 1017.73 1017.83 1017.70 1017.63 1017.53 1017.46 1017.45 1017.37 1017.02 1016.65 1016.20 1015.70 1015.37 1015.37 1015.35
1010.50 1010.75 1010.44 1009.91 1009.38 1008.86 1009.08 1009.22 1009.60 1010.50 1011.33 1012.40 1013.50 1014.33 1015.15 1015.46 1015.58 1015.98 1016.27 1016.32 1016.59 1016.98 1017.20 1017.35 1017.59 1017.71 1017.83 1018.04 1018.05 1017.97 1017.98 1017.96 1017.71 1017.62 1017.49 1017.31 1016.98 1016.64 1016.27 1015.85 1015.37 1015.05 1015.04 1015.19
1010.33 1010.93 1011.00 1010.82 1010.01 1009.32 1009.52 1009.76 1009.62 1010.16 1010.74 1011.73 1012.80 1014.02 1014.49 1015.19 1015.40 1015.85 1016.08 1016.32 1016.75 1017.08 1017.30 1017.74 1017.97 1018.15 1018.30 1018.44 1018.28 1018.15 1018.27 1018.21 1018.05 1017.90 1017.53 1017.04 1016.81 1016.51 1016.24 1015.68 1015.21 1014.98 1014.80 1014.92
1010.53 1011.27 1011.98 1011.81 1010.92 1010.50 1010.62 1011.10 1009.92 1010.25 1010.82 1011.69 1012.67 1013.38 1014.02 1015.00 1015.32 1015.54 1015.90 1016.34 1016.84 1017.33 1017.93 1018.18 1018.44 1018.61 1018.70 1018.74 1018.73 1018.86 1018.66 1018.51 1018.35 1018.05 1017.58 1016.98 1016.78 1016.54 1016.13 1015.66 1015.30 1014.97 1014.75 1014.58
1010.88 1011.73 1012.32 1012.64 1012.13 1012.01 1011.41 1011.59 1011.40 1012.16 1012.61 1012.25 1012.69 1013.36 1014.00 1014.74 1015.17 1015.56 1015.95 1016.53 1017.21 1017.70 1018.22 1018.46 1018.56 1018.75 1019.11 1019.14 1019.09 1019.01 1018.88 1018.81 1018.60 1018.29 1017.79 1017.20 1016.84 1016.38 1016.09 1015.67 1015.36 1015.11 1014.94 1014.75
1011.04 1012.09 1013.13 1013.69 1013.55 1012.86 1012.57 1013.06 1013.47 1013.76 1013.68 1013.54 1013.74 1013.92 1014.36 1014.83 1015.56 1016.47 1016.42 1016.94 1017.51 1018.00 1018.31 1018.57 1018.64 1019.03 1019.32 1019.48 1019.39 1019.27 1019.20 1019.07 1018.85 1018.44 1018.00 1017.60 1017.11 1016.55 1016.12 1015.67 1015.26 1014.74 1014.70 1014.61
1011.82 1012.58 1014.02 1014.84 1014.76 1014.27 1013.98 1013.41 1013.25 1013.00 1013.92 1014.22 1014.45 1014.73 1015.02 1015.43 1016.59 1017.14 1017.04 1017.35 1017.82 1018.04 1018.41 1018.68 1018.87 1019.39 1019.39 1019.53 1019.55 1019.64 1019.64 1019.45 1019.10 1018.60 1018.08 1017.50 1017.06 1016.60 1016.13 1015.73 1015.25 1014.67 1014.20 1014.17
1012.31 1013.68 1014.74 1015.81 1015.67 1014.79 1013.50 1013.26 1012.85 1013.88 1015.11 1014.66 1014.87 1015.26 1015.80 1016.50 1016.94 1017.30 1017.44 1017.76 1018.01 1018.33 1018.55 1018.60 1019.15 1019.63 1019.68 1019.89 1019.90 1019.93 1019.82 1019.66 1019.15 1018.60 1018.09 1017.54 1017.05 1016.58 1015.99 1015.53 1015.10 1014.56 1014.04 1013.93
1012.42 1013.93 1015.31 1015.77 1015.17 1014.35 1013.19 1013.31 1013.96 1014.63 1014.53 1014.93 1015.30 1015.82 1016.31 1016.73 1017.06 1017.45 1017.74 1018.00 1018.18 1018.47 1018.61 1018.81 1019.64 1019.89 1019.92 1020.02 1020.02 1020.11 1020.08 1019.65 1019.00 1018.59 1018.12 1017.69 1016.99 1016.54 1015.86 1015.57 1015.14 1014.74 1014.32 1014.20
1012.65 1013.34 1014.16 1014.79 1014.28 1014.00 1013.75 1014.20 1014.27 1014.40 1014.85 1015.26 1015.73 1016.06 1016.47 1017.16 1017.53 1017.71 1018.02 1018.24 1018.53 1018.73 1019.02 1019.39 1019.74 1019.98 1019.95 1019.98 1020.03 1020.16 1019.92 1019.41 1018.99 1018.74 1018.35 1017.88 1017.17 1016.67 1016.07 1015.76 1015.22 1015.01 1014.64 1014.44
1012.60 1013.03 1013.77 1013.79 1014.06 1014.14 1014.26 1014.33 1014.40 1014.63 1015.04 1015.33 1015.64 1016.21 1016.64 1017.31 1017.63 1017.92 1018.26 1018.60 1018.76 1018.92 1019.19 1019.45 1019.80 1020.08 1019.94 1019.83 1019.66 1019.62 1019.49 1019.08 1018.99 1018.83 1018.42 1017.93 1017.41 1016.80 1016.25 1015.67 1015.37 1015.06 1014.90 1014.86
1013.32 1013.57 1013.76 1014.09 1014.06 1013.85 1014.04 1014.11 1014.40 1014.69 1015.07 1015.51 1016.12 1016.68 1017.17 1017.44 1017.85 1018.12 1018.46 1018.74 1018.89 1019.01 1019.10 1019.35 1019.71 1019.67 1019.46 1019.27 1019.23 1019.05 1018.87 1018.80 1018.87 1018.73 1018.43 1018.06 1017.60 1017.06 1016.52 1015.96 1015.55 1015.24 1015.07 1015.23
1013.42 1013.86 1014.18 1014.39 1014.18 1014.10 1014.32 1014.13 1014.31 1014.82 1015.51 1015.94 1016.45 1016.97 1017.33 1017.63 1017.96 1018.08 1018.42 1018.61 1018.76 1018.82 1018.87 1019.09 1019.18 1019.02 1018.92 1018.80 1018.79 1018.73 1018.64 1018.62 1018.69 1018.57 1018.27 1017.96 1017.65 1017.17 1016.68 1016.23 1015.76 1015.36 1015.34 1015.35
Thickness
5801 5767 5760 5777 5783 5790 5779 5737 5719 5731 5764 5759 5740 5716 5715 5718 5717 5715 5705 5701 5697 5692 5695 5688 5684 5676 5668 5661 5655 5649 5641 5633 5624 5616 5609 5598 5600 5609 5607 5607 5605 5602 5597 5596
5783 5767 5795 5808 5804 5788 5774 5773 5765 5764 5772 5754 5738 5709 5703 5703 5709 5711 5707 5699 5695 5694 5693 5684 5676 5670 5666 5660 5656 5643 5632 5629 5623 5613 5606 5601 5605 5605 5602 5599 5597 5593 5592 5586
5770 5797 5815 5806 5796 5788 5783 5774 5769 5760 5772 5768 5734 5685 5678 5695 5697 5707 5713 5708 5697 5695 5688 5679 5671 5664 5662 5655 5649 5639 5631 5625 5617 5609 5601 5603 5597 5596 5593 5594 5589 5584 5580 5580
5781 5813 5814 5803 5788 5783 5764 5788 5781 5773 5757 5727 5758 5681 5680 5672 5685 5700 5705 5698 5691 5686 5682 5667 5663 5657 5657 5653 5645 5635 5627 5619 5609 5602 5598 5596 5587 5582 5585 5583 5582 5578 5576 5575
5773 5790 5795 5791 5780 5787 5769 5772 5767 5769 5758 5750 5725 5689 5674 5673 5671 5680 5684 5689 5687 5675 5667 5662 5657 5654 5652 5646 5639 5629 5619 5609 5604 5601 5591 5584 5579 5577 5577 5577 5576 5577 5575 5572
5790 5816 5801 5791 5795 5793 5794 5759 5744 5752 5749 5709 5716 5702 5656 5665 5670 5678 5677 5677 5674 5666 5665 5658 5657 5650 5644 5640 5629 5621 5611 5605 5600 5591 5586 5580 5574 5572 5564 5561 5565 5567 5567 5564
5780 5788 5807 5799 5777 5785 5773 5734 5696 5694 5694 5694 5710 5680 5667 5681 5681 5674 5673 5670 5670 5666 5656 5650 5647 5640 5633 5626 5622 5613 5604 5599 5592 5584 5579 5573 5568 5565 5558 5550 5553 5556 5554 5551
5747 5737 5786 5799 5773 5753 5753 5741 5697 5672 5678 5690 5708 5663 5660 5675 5680 5677 5680 5670 5665 5658 5653 5649 5646 5639 5633 5625 5616 5610 5604 5598 5589 5581 5574 5567 5563 5558 5557 5552 5550 5549 5547 5547
5745 5746 5789 5789 5789 5774 5752 5726 5748 5712 5716 5691 5669 5665 5672 5680 5675 5678 5669 5663 5655 5653 5648 5646 5641 5630 5624 5619 5612 5608 5600 5592 5585 5576 5568 5561 5554 5548 5545 5542 5541 5540 5540 5541
5762 5729 5778 5779 5782 5774 5756 5758 5709 5700 5673 5672 5679 5658 5647 5663 5665 5672 5661 5653 5648 5647 5639 5632 5626 5623 5618 5617 5611 5602 5594 5586 5576 5568 5561 5554 5547 5542 5540 5535 5532 5531 5532 5534
5760 5744 5746 5764 5751 5736 5734 5722 5723 5709 5697 5665 5647 5645 5673 5667 5666 5654 5649 5649 5646 5640 5634 5631 5623 5618 5614 5610 5602 5594 5586 5576 5566 5559 5552 5547 5540 5535 5530 5527 5528 5527 5527 5526
5753 5737 5716 5729 5753 5759 5749 5731 5715 5677 5676 5675 5662 5631 5671 5666 5658 5651 5649 5649 5647 5641 5632 5627 5620 5614 5610 5606 5599 5589 5579 5569 5562 5553 5544 5537 5533 5529 5524 5523 5522 5522 5519 5520
5740 5716 5695 5704 5727 5739 5730 5727 5725 5705 5690 5668 5655 5635 5668 5666 5659 5654 5649 5646 5638 5635 5626 5620 5613 5609 5607 5600 5591 5584 5575 5567 5558 5548 5537 5528 5525 5521 5519 5519 5518 5518 5518 5517
5742 5722 5704 5683 5701 5721 5712 5722 5718 5694 5661 5668 5664 5647 5651 5651 5646 5643 5638 5636 5633 5627 5617 5608 5603 5601 5596 5590 5583 5574 5565 5558 5551 5542 5533 5526 5519 5516 5515 5515 5515 5515 5514 5515
5731 5707 5716 5719 5725 5728 5716 5712 5708 5689 5689 5667 5662 5654 5651 5651 5651 5639 5637 5635 5626 5614 5609 5603 5596 5591 5585 5578 5570 5562 5554 5547 5540 5532 5524 5520 5516 5513 5513 5513 5515 5516 5515 5512
5732 5700 5710 5699 5719 5722 5708 5710 5707 5703 5694 5688 5668 5651 5663 5654 5646 5635 5632 5628 5616 5609 5604 5595 5588 5582 5575 5568 5562 5554 5545 5536 5528 5521 5517 5515 5511 5509 5507 5509 5513 5512 5513 5512
5718 5701 5686 5676 5707 5706 5684 5679 5701 5698 5690 5682 5657 5659 5661 5647 5641 5636 5633 5623 5614 5604 5592 5585 5578 5571 5565 5557 5548 5539 5532 5526 5518 5512 5510 5510 5505 5504 5504 5505 5507 5509 5511 5513
5712 5701 5691 5672 5683 5655 5688 5690 5695 5681 5672 5681 5671 5661 5654 5646 5642 5635 5624 5614 5604 5594 5584 5577 5571 5564 5553 5545 5539 5531 5524 5516 5508 5504 5503 5502 5499 5499 5499 5500 5503 5505 5506 5509
5719 5700 5678 5660 5658 5680 5682 5669 5657 5649 5652 5664 5655 5654 5648 5643 5627 5614 5616 5606 5594 5584 5576 5568 5564 5556 5544 5536 5530 5522 5513 5506 5499 5495 5493 5491 5490 5491 5492 5494 5498 5503 5504 5507
5702 5687 5664 5654 5650 5645 5662 5675 5677 5677 5634 5654 5648 5639 5633 5628 5594 5596 5602 5596 5586 5579 5569 5562 5557 5546 5539 5530 5522 5510 5501 5494 5490 5488 5486 5484 5482 5482 5485 5487 5492 5499 5503 5506
5684 5670 5654 5638 5629 5649 5675 5677 5683 5636 5624 5645 5642 5633 5624 5608 5600 5598 5593 5585 5578 5571 5563 5559 5549 5538 5532 5521 5511 5501 5493 5485 5482 5480 5478 5476 5474 5474 5478 5481 5486 5494 5500 5503
5680 5659 5637 5638 5643 5641 5681 5669 5648 5640 5649 5642 5634 5621 5613 5608 5600 5591 5585 5578 5572 5563 5558 5552 5538 5529 5521 5512 5503 5492 5483 5479 5478 5474 5471 5466 5466 5466 5472 5473 5478 5484 5491 5495
5672 5667 5646 5648 5653 5665 5664 5654 5657 5649 5636 5630 5619 5616 5608 5594 5587 5582 5575 5569 5562 5555 5547 5539 5531 5522 5514 5505 5497 5485 5479 5475 5470 5465 5460 5457 5456 5455 5458 5462 5468 5472 5481 5487
5688 5684 5665 5662 5663 5657 5655 5656 5652 5644 5633 5627 5621 5606 5600 5588 5580 5573 5567 5558 5553 5547 5540 5533 5525 5516 5512 5502 5496 5486 5477 5471 5463 5456 5451 5447 5444 5445 5444 5450 5454 5463 5471 5477
5671 5667 5662 5657 5661 5660 5651 5649 5642 5635 5629 5622 5606 5595 5586 5578 5571 5565 5557 5551 5545 5540 5536 5528 5520 5515 5509 5504 5496 5486 5476 5467 5459 5450 5443 5437 5432 5428 5430 5435 5439 5452 5461 5467
5669 5660 5646 5639 5654 5649 5644 5646 5641 5629 5615 5605 5593 5582 5575 5568 5562 5559 5551 5546 5541 5536 5533 5526 5520 5517 5511 5504 5494 5485 5475 5464 5454 5445 5437 5428 5420 5416 5417 5422 5429 5441 5450 5458